Terminal Aerodrome Forecast
Issued by NWS

Home | Current Version | Previous Version | Text Only | Print | Product List | Glossary On
Versions: 1 2 3 4 5 6 7 8 9 10 11 12 13 14
000
FTUS43 KICT 271923 AAA
TAFCNU
TAF AMD
KCNU 271923Z 2719/2818 19007KT P6SM SCT150 BKN300=

USA.gov is the U.S. government's official web portal to all federal, state and local government web resources and services.